Zurück zum Katalog

STARLINK-1329

AktivKommunikationVLEO
NORAD 45531·PAYLOAD·🇺🇸 United States

Gestartet Apr 22, 2020 von Cape Canaveral Space Force Station

Loading…

Nächste Überflüge (nächste 24 Stunden)

TLE

AktuellSource: CelesTrak SupGP

Epoche: Sep 14, 2026, 14:38 UTC

1 45531C 20025A   26257.61020833  .00129670  00000+0  35054-3 0  2573
2 45531  53.0317 220.5921 0004490  79.8646  42.3028 15.93469488    14

Verfolge STARLINK-1329 in Echtzeit mit AllMySat

Download on the App Store